[[{"header":{"parameterUnit":"m.s-1","parameterCategory":1,"la1":30.2991,"la2":30.254,"lo1":-89.0895,"lo2":-89.0444,"dy":0.0017,"dx":0.0017,"nx":28,"ny":28,"refTime":"2024-04-05T21:00:00:Z","depth":0,"parameterNumber":2,"parameterNumberName":"U-component_of_WINDS"},"data":[0,0,0,0,0,0,0,0,0,0,0,0,0,0,0,0,0,0,0,0,0,0,0,0,0,0,0,0,0,0,0,0,0,0,0,0,0,0,0,0,0,0,0,0,0,0,0,0,0,0,0,0,0,0,0,0,0,0,-2.1857,-2.1857,0,-2.1815,-2.1814,-2.1814,-2.1737,-2.1735,-2.1734,-2.1732,-2.169,-2.169,-2.169,0,0,0,0,0,0,0,0,0,0,0,0,0,-2.1873,-2.1873,-2.1857,-2.1857,-2.1856,-2.1815,-2.1814,-2.1814,-2.1737,-2.1735,-2.1733,-2.1732,-2.169,-2.169,-2.169,0,0,0,0,0,0,0,0,0,0,0,0,0,-2.1852,-2.1873,-2.1857,-2.1813,-2.1809,-2.1815,-2.1814,-2.1813,-2.1737,-2.1735,-2.1733,-2.1731,-2.1689,-2.169,-2.169,-2.1737,0,0,-2.1691,-2.1691,0,0,0,0,0,0,0,0,-2.1853,-2.1852,-2.182,-2.1816,-2.1811,-2.1779,-2.1804,-2.1788,-2.1738,-2.1764,-2.1732,-2.173,-2.1721,-2.1719,-2.1716,-2.1735,-2.1733,-2.1691,-2.1691,-2.1692,-2.1692,0,0,0,0,0,0,0,-2.1855,-2.1853,-2.184,-2.182,-2.1814,-2.1795,-2.179,-2.1801,-2.1756,-2.1762,-2.1756,-2.1752,-2.1718,-2.1715,-2.1714,-2.1732,-2.1691,-2.1692,-2.1692,-2.1692,-2.1787,-2.1789,0,0,0,0,0,0,-2.1863,-2.1855,-2.1842,-2.1839,-2.1827,-2.1797,-2.1791,-2.1791,-2.1755,-2.1748,-2.1754,-2.1749,-2.1716,-2.1714,-2.1712,-2.1764,-2.1692,-2.1692,-2.1692,-2.1785,-2.1787,-2.179,0,0,0,0,0,0,-2.1863,-2.1862,-2.1844,-2.1845,-2.1842,-2.1799,-2.18,-2.1792,-2.1789,-2.1749,-2.1741,-2.1759,-2.1714,-2.1712,-2.1731,-2.1761,-2.1692,-2.1692,-2.1782,-2.1786,-2.1789,-2.1868,0,0,0,0,0,0,-2.1864,-2.1863,-2.188,-2.1846,-2.1842,-2.1863,-2.1802,-2.1792,-2.1789,-2.1782,-2.1752,-2.1745,-2.1712,-2.1731,-2.1731,-2.176,-2.1693,-2.1779,-2.1784,-2.1788,-2.1862,-2.1874,-2.1883,0,0,0,0,0,-2.1865,-2.1904,-2.1881,-2.188,-2.1862,-2.1865,-2.1862,-2.1823,-2.1792,-2.1809,-2.1784,-2.1746,-2.1758,-2.1734,-2.1733,-2.1763,-2.1777,-2.1782,-2.1787,-2.1858,-2.1871,-2.1883,0,0,0,0,0,0,-2.1943,-2.1899,-2.1873,-2.1903,-2.1888,-2.1852,-2.1872,-2.1839,-2.1833,-2.1827,-2.1779,-2.1773,-2.1798,-2.1783,-2.1756,-2.1806,-2.1762,-2.1767,-2.1815,-2.1828,-2.1838,-2.1841,-2.1693,0,0,0,0,0,-2.1964,-2.1969,-2.1931,-2.1961,-2.1955,-2.1915,-2.1915,-2.1886,-2.1869,-2.1862,-2.1838,-2.1824,-2.1824,-2.1825,-2.1823,-2.186,-2.1852,-2.188,-2.1891,-2.19,-2.1905,-2.1922,-2.1934,-2.1807,-2.1807,-2.1807,0,0,-2.2006,-2.1983,-2.199,-2.1976,-2.1961,-2.1968,-2.191,-2.192,-2.1925,-2.1864,-2.188,-2.1863,-2.1843,-2.1871,-2.1882,-2.1859,-2.1938,-2.1906,-2.1914,-2.1914,-2.1929,-2.1941,-2.1952,-2.1811,-2.181,-2.1809,0,0,-2.2087,-2.2071,-2.2093,-2.208,-2.2058,-2.2031,-2.2037,-2.2006,-2.1992,-2.2007,-2.1962,-2.1967,-2.1969,-2.1956,-2.195,-2.2027,-2.1992,-2.2028,-2.2083,-2.21,-2.211,-2.2119,-2.2146,-2.2156,-2.2034,-2.2034,-2.2034,0,-2.2143,-2.2151,-2.2109,-2.2122,-2.2117,-2.2062,-2.2085,-2.2074,-2.2053,-2.2051,-2.2025,-2.2026,-2.2009,-2.2033,-2.2052,-2.205,-2.2054,-2.2031,-2.2112,-2.2121,-2.2128,-2.2153,-2.2163,-2.2038,-2.2038,-2.2037,-2.2037,0,-2.2221,-2.2228,-2.2249,-2.2229,-2.2227,-2.2245,-2.2205,-2.2208,-2.218,-2.2156,-2.2173,-2.2151,-2.2143,-2.2147,-2.212,-2.2167,-2.2153,-2.2121,-2.2075,-2.2145,-2.2168,-2.2177,-2.2045,-2.2043,-2.2042,-2.2041,0,0,-2.2349,-2.2306,-2.2315,-2.2305,-2.2278,-2.2282,-2.2298,-2.229,-2.2293,-2.2281,-2.2293,-2.2295,-2.2265,-2.2258,-2.2229,-2.2245,-2.2307,-2.221,-2.2209,-2.2228,-2.2357,-2.2381,-2.2393,-2.2284,-2.2285,-2.2287,-2.2359,0,-2.2424,-2.2447,-2.2409,-2.2442,-2.2447,-2.2395,-2.2409,-2.2394,-2.2372,-2.2374,-2.235,-2.2352,-2.2312,-2.2308,-2.2321,-2.2296,-2.2332,-2.2291,-2.2294,-2.2294,-2.2299,-2.2405,-2.2431,-2.25,-2.2367,-2.2369,-2.237,0,-2.2513,-2.2505,-2.2538,-2.2508,-2.2509,-2.2522,-2.2512,-2.2514,-2.2496,-2.2479,-2.2472,-2.2437,-2.245,-2.2407,-2.2424,-2.2397,-2.2396,-2.2384,-2.2386,-2.2384,-2.2336,-2.2405,-2.2521,-2.2531,-2.2383,-2.2382,-2.2381,0,-2.2603,-2.26,-2.2619,-2.2613,-2.2579,-2.2589,-2.2575,-2.2555,-2.2552,-2.2544,-2.2542,-2.2535,-2.2532,-2.2527,-2.2492,-2.2463,-2.2513,-2.2467,-2.2499,-2.25,-2.2511,-2.2511,-2.2628,-2.2512,-2.2512,-2.2512,-2.2512,0,-2.269,-2.2712,-2.2659,-2.2671,-2.2693,-2.2651,-2.2675,-2.2656,-2.2638,-2.2645,-2.26,-2.2608,-2.2561,-2.2564,-2.2536,-2.2554,-2.2553,-2.254,-2.2532,-2.2543,-2.2545,-2.2541,-2.2535,-2.2515,-2.2514,-2.2514,-2.2513,0,-2.2793,-2.2759,-2.2776,-2.2742,-2.2734,-2.2753,-2.2724,-2.2733,-2.2709,-2.2719,-2.2719,-2.268,-2.2681,-2.2646,-2.2639,-2.2621,-2.2651,-2.2635,-2.2657,-2.2651,-2.2685,-2.2683,-2.2803,-2.2817,-2.2694,-2.2695,-2.2696,0,-2.285,-2.2866,-2.2834,-2.2835,-2.2824,-2.2827,-2.2824,-2.2783,-2.2782,-2.2762,-2.2774,-2.2771,-2.2766,-2.277,-2.2742,-2.2737,-2.272,-2.2763,-2.2719,-2.273,-2.272,-2.2719,-2.272,-2.2772,-2.2773,-2.2774,-2.2775,0,-2.2955,-2.2937,-2.2935,-2.2928,-2.2926,-2.2918,-2.2906,-2.291,-2.2865,-2.2866,-2.2866,-2.2863,-2.2856,-2.2854,-2.2844,-2.2829,-2.2795,-2.279,-2.2797,-2.2808,-2.282,-2.2813,-2.2681,-2.2787,-2.2786,-2.2785,-2.2784,-2.2784,-2.3037,-2.3048,-2.3027,-2.3026,-2.3014,-2.3004,-2.3011,-2.2988,-2.2987,-2.2978,-2.2954,-2.2958,-2.2939,-2.2922,-2.2911,-2.2913,-2.2892,-2.2903,-2.2905,-2.2908,-2.2914,-2.282,-2.2911,-2.2911,-2.2911,-2.291,-2.291,0,-2.3139,-2.3123,-2.3123,-2.3108,-2.3108,-2.3076,-2.3062,-2.3063,-2.3067,-2.3053,-2.3049,-2.3049,-2.3046,-2.3018,-2.3012,-2.302,-2.3004,-2.302,-2.3018,-2.3015,-2.2934,-2.2928,-2.3032,-2.3032,-2.3032,-2.3032,-2.3032,-2.3032,-2.3192,-2.3209,-2.3189,-2.3199,-2.3183,-2.3187,-2.3182,-2.3173,-2.3161,-2.3163,-2.316,-2.3142,-2.3121,-2.3114,-2.311,-2.3101,-2.3101,-2.3122,-2.3109,-2.3033,-2.3021,-2.301,-2.3004,-2.3123,-2.3123,-2.3189,-2.319,-2.3191]},{"header":{"parameterUnit":"m.s-1","parameterCategory":1,"la1":30.2991,"la2":30.254,"lo1":-89.0895,"lo2":-89.0444,"dy":0.0017,"dx":0.0017,"nx":28,"ny":28,"refTime":"2024-04-05T21:00:00:Z","depth":0,"parameterNumber":3,"parameterNumberName":"V-component_of_WINDS"},"data":[0,0,0,0,0,0,0,0,0,0,0,0,0,0,0,0,0,0,0,0,0,0,0,0,0,0,0,0,0,0,0,0,0,0,0,0,0,0,0,0,0,0,0,0,0,0,0,0,0,0,0,0,0,0,0,0,0,0,3.4734,3.4734,0,3.4719,3.4719,3.4719,3.4648,3.4647,3.4645,3.4644,3.463,3.4631,3.4632,0,0,0,0,0,0,0,0,0,0,0,0,0,3.4703,3.4704,3.4734,3.4734,3.4734,3.4719,3.4719,3.4719,3.4649,3.4647,3.4645,3.4643,3.4629,3.4631,3.4632,0,0,0,0,0,0,0,0,0,0,0,0,0,3.4705,3.4704,3.4734,3.4697,3.4694,3.4719,3.4719,3.4719,3.4649,3.4647,3.4644,3.4642,3.4629,3.463,3.4632,3.4693,0,0,3.4638,3.4638,0,0,0,0,0,0,0,0,3.4705,3.4707,3.4703,3.47,3.4696,3.4683,3.4703,3.471,3.465,3.4666,3.4644,3.4641,3.4649,3.4649,3.4652,3.4692,3.4692,3.4638,3.4639,3.464,3.464,0,0,0,0,0,0,0,3.4705,3.4707,3.4728,3.4703,3.4699,3.4681,3.4679,3.4704,3.4672,3.4664,3.4659,3.4658,3.4647,3.4651,3.4651,3.4691,3.4638,3.4639,3.464,3.4641,3.4779,3.4782,0,0,0,0,0,0,3.471,3.4707,3.4729,3.4728,3.4695,3.4684,3.4681,3.469,3.4672,3.4666,3.4661,3.4655,3.4649,3.4649,3.465,3.4719,3.4639,3.4641,3.4642,3.4777,3.478,3.4783,0,0,0,0,0,0,3.471,3.4713,3.4729,3.4716,3.4717,3.4687,3.4697,3.4691,3.4694,3.4669,3.4663,3.467,3.4647,3.4648,3.4682,3.4718,3.4642,3.4644,3.4774,3.4778,3.4781,3.4858,0,0,0,0,0,0,3.4709,3.4713,3.4736,3.4717,3.4718,3.4762,3.47,3.4692,3.4697,3.469,3.4676,3.4671,3.4645,3.468,3.4684,3.4719,3.4645,3.477,3.4776,3.478,3.4852,3.4864,3.4874,0,0,0,0,0,3.4708,3.4758,3.4737,3.474,3.4745,3.4764,3.4764,3.4733,3.47,3.4723,3.4706,3.4671,3.4714,3.4684,3.4688,3.4724,3.4768,3.4774,3.478,3.4847,3.4861,3.4874,0,0,0,0,0,0,3.4782,3.4755,3.4731,3.4777,3.4773,3.4752,3.4779,3.4749,3.4755,3.4748,3.471,3.4707,3.4747,3.4739,3.4707,3.4781,3.4735,3.4742,3.4785,3.4798,3.4809,3.4809,3.4646,0,0,0,0,0,3.4804,3.4821,3.4796,3.4839,3.4838,3.4809,3.4816,3.4792,3.4787,3.4785,3.4771,3.4768,3.478,3.4789,3.4799,3.4851,3.4846,3.4877,3.4888,3.4898,3.4904,3.4929,3.4943,3.4802,3.4802,3.4802,0,0,3.4849,3.4836,3.4849,3.4853,3.4847,3.4866,3.4808,3.483,3.4843,3.4789,3.4819,3.481,3.4803,3.4846,3.4865,3.4841,3.4942,3.4905,3.4913,3.4913,3.4937,3.495,3.4962,3.4806,3.4805,3.4805,0,0,3.4939,3.4932,3.4965,3.4961,3.4952,3.4933,3.4941,3.4924,3.4915,3.4946,3.4905,3.492,3.4943,3.4939,3.4941,3.503,3.4997,3.5034,3.5091,3.5117,3.5128,3.5138,3.5168,3.518,3.5041,3.5041,3.5041,0,3.4996,3.5021,3.4987,3.5011,3.5014,3.4965,3.4998,3.4996,3.4992,3.4995,3.4968,3.4994,3.4987,3.5028,3.505,3.5053,3.5061,3.5035,3.5129,3.5138,3.5147,3.5175,3.5187,3.5045,3.5045,3.5044,3.5044,0,3.5091,3.5109,3.5137,3.5133,3.514,3.5169,3.5139,3.5149,3.5125,3.5109,3.514,3.5129,3.5136,3.5144,3.5121,3.5182,3.5167,3.5136,3.5088,3.5165,3.5191,3.5202,3.5052,3.505,3.5049,3.5048,0,0,3.5227,3.5203,3.5214,3.5211,3.5198,3.5212,3.5239,3.5244,3.5254,3.5253,3.5274,3.5294,3.5264,3.5266,3.5242,3.5265,3.5335,3.523,3.5229,3.5249,3.54,3.5423,3.5436,3.5314,3.5316,3.5318,3.54,0,3.5312,3.5355,3.5325,3.5374,3.5389,3.5343,3.5366,3.5361,3.5347,3.5358,3.5342,3.5356,3.5317,3.5317,3.5338,3.5322,3.5364,3.5316,3.5333,3.5334,3.5334,3.545,3.5474,3.5552,3.541,3.5412,3.5413,0,3.5417,3.5419,3.5469,3.5452,3.5458,3.5479,3.5481,3.5493,3.5486,3.5474,3.5476,3.5446,3.5471,3.5426,3.546,3.5428,3.5433,3.5426,3.5429,3.5428,3.5377,3.5451,3.5577,3.5588,3.5429,3.5428,3.5427,0,3.5509,3.5525,3.5556,3.5556,3.5537,3.5553,3.5546,3.5537,3.5542,3.5544,3.5547,3.5553,3.5556,3.5562,3.5534,3.5504,3.5572,3.5524,3.5562,3.5562,3.5577,3.5576,3.5704,3.5583,3.5583,3.5583,3.5583,0,3.5606,3.5638,3.5597,3.5617,3.5651,3.5616,3.5652,3.564,3.5632,3.5649,3.561,3.5626,3.559,3.5603,3.5582,3.5612,3.5615,3.5605,3.5599,3.5608,3.5609,3.561,3.5603,3.5586,3.5585,3.5585,3.5584,0,3.5714,3.5689,3.5719,3.5699,3.5695,3.5721,3.5704,3.5721,3.5704,3.5725,3.5728,3.5701,3.5714,3.5688,3.5697,3.5683,3.5726,3.5712,3.5728,3.5723,3.5762,3.5758,3.5894,3.5909,3.578,3.5781,3.5782,0,3.5777,3.5801,3.5783,3.579,3.5785,3.5799,3.5803,3.577,3.5777,3.577,3.5788,3.5798,3.5803,3.5826,3.5808,3.5815,3.58,3.5847,3.5801,3.5809,3.5799,3.5798,3.5799,3.5856,3.5858,3.5859,3.586,0,3.5892,3.5877,3.5885,3.5888,3.5895,3.5896,3.5895,3.5904,3.5868,3.5878,3.589,3.5894,3.5904,3.5913,3.5916,3.5909,3.5879,3.5875,3.5884,3.5892,3.59,3.5895,3.5752,3.5872,3.5871,3.587,3.5869,3.5869,3.5978,3.5996,3.5986,3.5996,3.5991,3.599,3.6005,3.5989,3.5998,3.6003,3.5983,3.6,3.5992,3.5992,3.5989,3.6002,3.598,3.5994,3.5997,3.6,3.6006,3.5899,3.6002,3.6002,3.6002,3.6001,3.6001,0,3.6089,3.608,3.6089,3.6088,3.6095,3.6066,3.6063,3.6071,3.6086,3.6081,3.6087,3.6101,3.611,3.6093,3.6099,3.6112,3.6099,3.6115,3.6113,3.6112,3.6025,3.6016,3.6126,3.6126,3.6126,3.6126,3.6126,3.6126,3.6147,3.6176,3.616,3.6186,3.6177,3.6192,3.6193,3.6192,3.6188,3.6204,3.6211,3.62,3.619,3.6195,3.6202,3.6197,3.6201,3.6222,3.6212,3.613,3.6118,3.6106,3.6098,3.6223,3.6224,3.6297,3.6298,3.6299]}]]